Time,TemperatureF,DewpointF,PressureIn,WindDirection,WindDirectionDegrees,WindSpeedMPH,WindSpeedGustMPH,Humidity,HourlyPrecipIn,Conditions,Clouds,dailyrainin,SoftwareType,DateUTC
2013-04-22 00:01:00,69.9,67.8,30.09,NE,41,0.0,1.0,93,0.00,,,0.00,Wunderground v.1.15,2013-04-22 04:01:00,
2013-04-22 00:02:00,69.9,67.8,30.09,NE,41,0.0,1.0,93,0.00,,,0.00,Wunderground v.1.15,2013-04-22 04:02:00,
2013-04-22 00:03:00,69.9,67.8,30.09,NE,41,0.0,1.0,93,0.00,,,0.00,Wunderground v.1.15,2013-04-22 04:03:00,
2013-04-22 00:04:00,69.9,67.8,30.09,NE,41,0.0,1.0,93,0.00,,,0.00,Wunderground v.1.15,2013-04-22 04:04:00,
2013-04-22 00:07:00,69.9,67.8,30.08,NE,41,0.0,1.0,93,0.00,,,0.00,Wunderground v.1.15,2013-04-22 04:07:00,
2013-04-22 00:13:00,69.7,67.6,30.08,NE,45,0.0,2.0,93,0.00,,,0.00,Wunderground v.1.15,2013-04-22 04:13:00,
2013-04-22 00:18:00,69.6,67.5,30.08,NE,45,0.0,2.0,93,0.00,,,0.00,Wunderground v.1.15,2013-04-22 04:18:00,
2013-04-22 00:24:00,69.5,67.4,30.08,NE,45,0.0,0.0,93,0.00,,,0.00,Wunderground v.1.15,2013-04-22 04:24:00,
2013-04-22 00:30:00,69.5,67.4,30.08,NE,45,0.0,0.0,93,0.00,,,0.00,Wunderground v.1.15,2013-04-22 04:30:00,
2013-04-22 00:35:00,69.5,67.4,30.08,NE,45,0.0,0.0,93,0.00,,,0.00,Wunderground v.1.15,2013-04-22 04:35:00,
2013-04-22 00:41:00,69.5,67.4,30.08,NE,45,0.0,0.0,93,0.00,,,0.00,Wunderground v.1.15,2013-04-22 04:41:00,
2013-04-22 00:46:00,69.5,67.4,30.08,NE,45,0.0,0.0,93,0.00,,,0.00,Wunderground v.1.15,2013-04-22 04:46:00,
2013-04-22 00:51:00,69.5,67.7,30.08,NE,45,0.0,0.0,94,0.00,,,0.00,Wunderground v.1.15,2013-04-22 04:51:00,
2013-04-22 00:56:00,69.6,67.8,30.08,NE,45,0.0,0.0,94,0.00,,,0.01,Wunderground v.1.15,2013-04-22 04:56:00,
2013-04-22 01:02:00,69.6,67.8,30.08,NE,45,0.0,1.0,94,0.00,,,0.01,Wunderground v.1.15,2013-04-22 05:02:00,
2013-04-22 01:07:00,69.7,67.9,30.08,NE,45,0.0,1.0,94,0.00,,,0.01,Wunderground v.1.15,2013-04-22 05:07:00,
2013-04-22 01:13:00,69.8,68.0,30.08,NE,45,0.0,1.0,94,0.00,,,0.01,Wunderground v.1.15,2013-04-22 05:13:00,
2013-04-22 01:19:00,69.9,68.1,30.07,NE,45,0.0,1.0,94,0.00,,,0.01,Wunderground v.1.15,2013-04-22 05:19:00,
2013-04-22 01:24:00,70.1,68.6,30.08,NE,45,0.0,0.0,95,0.00,,,0.01,Wunderground v.1.15,2013-04-22 05:24:00,
2013-04-22 01:30:00,70.1,68.6,30.08,NE,53,0.0,0.0,95,0.00,,,0.01,Wunderground v.1.15,2013-04-22 05:30:00,
2013-04-22 01:36:00,70.2,68.7,30.08,ENE,57,0.0,0.0,95,0.00,,,0.01,Wunderground v.1.15,2013-04-22 05:36:00,
2013-04-22 01:41:00,70.2,68.7,30.08,ENE,59,0.0,0.0,95,0.00,,,0.01,Wunderground v.1.15,2013-04-22 05:41:00,
2013-04-22 01:47:00,70.2,68.7,30.07,NE,56,0.0,2.0,95,0.00,,,0.01,Wunderground v.1.15,2013-04-22 05:47:00,
2013-04-22 01:52:00,70.2,68.7,30.08,ENE,60,0.0,0.0,95,0.00,,,0.01,Wunderground v.1.15,2013-04-22 05:52:00,
2013-04-22 01:57:00,70.3,68.8,30.08,ENE,61,0.0,0.0,95,0.00,,,0.01,Wunderground v.1.15,2013-04-22 05:57:00,
2013-04-22 02:03:00,70.3,68.8,30.07,South,176,0.0,5.0,95,0.00,,,0.01,Wunderground v.1.15,2013-04-22 06:03:00,
2013-04-22 02:08:00,70.3,68.8,30.07,South,173,1.0,7.0,95,0.00,,,0.01,Wunderground v.1.15,2013-04-22 06:08:00,
2013-04-22 02:14:00,70.3,68.8,30.07,South,191,1.0,2.0,95,0.00,,,0.01,Wunderground v.1.15,2013-04-22 06:14:00,
2013-04-22 02:19:00,70.3,68.5,30.07,South,182,1.0,2.0,94,0.00,,,0.01,Wunderground v.1.15,2013-04-22 06:19:00,
2013-04-22 02:24:00,70.3,68.5,30.07,SSE,155,1.0,4.0,94,0.00,,,0.01,Wunderground v.1.15,2013-04-22 06:24:00,
2013-04-22 02:29:00,70.1,68.3,30.06,SE,130,0.0,4.0,94,0.00,,,0.01,Wunderground v.1.15,2013-04-22 06:29:00,
2013-04-22 02:35:00,69.9,67.8,30.06,South,177,0.0,2.0,93,0.00,,,0.01,Wunderground v.1.15,2013-04-22 06:35:00,
2013-04-22 02:40:00,69.7,67.6,30.06,South,172,0.0,0.0,93,0.00,,,0.01,Wunderground v.1.15,2013-04-22 06:40:00,
2013-04-22 02:46:00,69.7,67.6,30.06,South,172,0.0,0.0,93,0.00,,,0.01,Wunderground v.1.15,2013-04-22 06:46:00,
2013-04-22 02:51:00,69.6,67.5,30.06,South,172,0.0,0.0,93,0.00,,,0.01,Wunderground v.1.15,2013-04-22 06:51:00,
2013-04-22 02:56:00,69.6,67.5,30.06,South,172,0.0,0.0,93,0.00,,,0.01,Wunderground v.1.15,2013-04-22 06:56:00,
2013-04-22 03:02:00,69.5,67.4,30.06,South,173,0.0,0.0,93,0.00,,,0.01,Wunderground v.1.15,2013-04-22 07:02:00,
2013-04-22 03:07:00,69.5,67.4,30.06,South,172,0.0,0.0,93,0.00,,,0.01,Wunderground v.1.15,2013-04-22 07:07:00,
2013-04-22 03:12:00,69.5,67.7,30.05,South,173,0.0,0.0,94,0.00,,,0.01,Wunderground v.1.15,2013-04-22 07:12:00,
2013-04-22 03:18:00,69.5,67.7,30.05,South,173,0.0,0.0,94,0.00,,,0.01,Wunderground v.1.15,2013-04-22 07:18:00,
2013-04-22 03:23:00,69.5,67.7,30.05,South,173,0.0,0.0,94,0.00,,,0.01,Wunderground v.1.15,2013-04-22 07:23:00,
2013-04-22 03:28:00,69.5,67.7,30.05,South,172,0.0,0.0,94,0.00,,,0.01,Wunderground v.1.15,2013-04-22 07:28:00,
2013-04-22 03:34:00,69.4,67.6,30.05,South,173,0.0,0.0,94,0.00,,,0.01,Wunderground v.1.15,2013-04-22 07:34:00,
2013-04-22 03:39:00,69.4,67.6,30.04,SW,236,0.0,1.0,94,0.00,,,0.01,Wunderground v.1.15,2013-04-22 07:39:00,
2013-04-22 03:44:00,69.5,67.7,30.04,SW,236,0.0,0.0,94,0.00,,,0.01,Wunderground v.1.15,2013-04-22 07:44:00,
2013-04-22 03:50:00,69.4,67.6,30.04,WSW,238,0.0,0.0,94,0.00,,,0.01,Wunderground v.1.15,2013-04-22 07:50:00,
2013-04-22 03:55:00,69.4,67.6,30.04,WSW,238,0.0,0.0,94,0.00,,,0.01,Wunderground v.1.15,2013-04-22 07:55:00,
2013-04-22 04:00:00,69.4,67.6,30.04,WSW,238,0.0,0.0,94,0.00,,,0.01,Wunderground v.1.15,2013-04-22 08:00:00,
2013-04-22 04:05:00,69.4,67.6,30.04,WSW,238,0.0,0.0,94,0.00,,,0.01,Wunderground v.1.15,2013-04-22 08:05:00,
2013-04-22 04:11:00,69.3,67.5,30.04,WSW,238,0.0,0.0,94,0.00,,,0.01,Wunderground v.1.15,2013-04-22 08:11:00,
2013-04-22 04:16:00,69.2,67.4,30.04,NW,318,0.0,1.0,94,0.00,,,0.01,Wunderground v.1.15,2013-04-22 08:16:00,
2013-04-22 04:21:00,69.2,67.4,30.03,NW,321,0.0,0.0,94,0.00,,,0.01,Wunderground v.1.15,2013-04-22 08:21:00,
2013-04-22 04:27:00,69.2,67.4,30.03,NE,43,0.0,0.0,94,0.00,,,0.01,Wunderground v.1.15,2013-04-22 08:27:00,
2013-04-22 04:32:00,69.2,67.4,30.03,NE,41,0.0,0.0,94,0.00,,,0.01,Wunderground v.1.15,2013-04-22 08:32:00,
2013-04-22 04:37:00,69.2,67.4,30.02,NE,41,0.0,0.0,94,0.00,,,0.01,Wunderground v.1.15,2013-04-22 08:37:00,
2013-04-22 04:43:00,69.1,67.3,30.02,NE,40,0.0,0.0,94,0.00,,,0.01,Wunderground v.1.15,2013-04-22 08:43:00,
2013-04-22 04:48:00,69.1,67.3,30.03,NE,34,0.0,2.0,94,0.00,,,0.01,Wunderground v.1.15,2013-04-22 08:48:00,
2013-04-22 04:53:00,69.0,67.5,30.02,NE,34,0.0,0.0,95,0.00,,,0.01,Wunderground v.1.15,2013-04-22 08:53:00,
2013-04-22 04:58:00,68.9,67.4,30.02,NE,34,0.0,0.0,95,0.00,,,0.01,Wunderground v.1.15,2013-04-22 08:58:00,
2013-04-22 05:04:00,68.9,67.4,30.02,NE,34,0.0,1.0,95,0.00,,,0.01,Wunderground v.1.15,2013-04-22 09:04:00,
2013-04-22 05:09:00,68.8,67.3,30.01,NE,34,0.0,1.0,95,0.00,,,0.01,Wunderground v.1.15,2013-04-22 09:09:00,
2013-04-22 05:15:00,68.8,67.3,30.01,NE,34,0.0,0.0,95,0.00,,,0.01,Wunderground v.1.15,2013-04-22 09:15:00,
2013-04-22 05:20:00,68.7,66.9,30.01,NE,35,0.0,0.0,94,0.00,,,0.01,Wunderground v.1.15,2013-04-22 09:20:00,
2013-04-22 05:25:00,68.6,67.1,30.00,NE,35,0.0,0.0,95,0.00,,,0.01,Wunderground v.1.15,2013-04-22 09:25:00,
2013-04-22 05:30:00,68.6,67.1,30.01,NE,35,0.0,0.0,95,0.00,,,0.01,Wunderground v.1.15,2013-04-22 09:30:00,
2013-04-22 05:36:00,68.6,67.1,30.01,NE,35,0.0,0.0,95,0.00,,,0.01,Wunderground v.1.15,2013-04-22 09:36:00,
2013-04-22 05:41:00,68.6,67.1,30.01,NE,35,0.0,0.0,95,0.00,,,0.01,Wunderground v.1.15,2013-04-22 09:41:00,
2013-04-22 05:47:00,68.5,67.0,30.01,NE,34,0.0,0.0,95,0.00,,,0.01,Wunderground v.1.15,2013-04-22 09:47:00,
2013-04-22 05:53:00,68.5,67.0,30.01,NE,34,0.0,0.0,95,0.00,,,0.01,Wunderground v.1.15,2013-04-22 09:53:00,
2013-04-22 05:58:00,68.4,66.9,30.01,NE,34,0.0,0.0,95,0.00,,,0.01,Wunderground v.1.15,2013-04-22 09:58:00,
2013-04-22 06:03:00,68.3,66.8,30.00,NE,34,0.0,1.0,95,0.00,,,0.01,Wunderground v.1.15,2013-04-22 10:03:00,
2013-04-22 06:09:00,68.3,66.8,30.01,NE,35,0.0,1.0,95,0.00,,,0.01,Wunderground v.1.15,2013-04-22 10:09:00,
2013-04-22 06:14:00,68.3,66.8,30.01,NE,35,0.0,0.0,95,0.00,,,0.01,Wunderground v.1.15,2013-04-22 10:14:00,
2013-04-22 06:19:00,68.3,66.8,30.01,NE,35,0.0,0.0,95,0.00,,,0.01,Wunderground v.1.15,2013-04-22 10:19:00,
2013-04-22 06:25:00,68.3,66.8,30.01,NE,34,0.0,2.0,95,0.00,,,0.01,Wunderground v.1.15,2013-04-22 10:25:00,
2013-04-22 06:30:00,68.3,66.8,30.01,NNE,33,0.0,0.0,95,0.00,,,0.01,Wunderground v.1.15,2013-04-22 10:30:00,
2013-04-22 06:36:00,68.4,66.9,30.02,NNE,31,0.0,1.0,95,0.00,,,0.01,Wunderground v.1.15,2013-04-22 10:36:00,
2013-04-22 06:42:00,68.4,66.9,30.02,NNE,15,0.0,1.0,95,0.00,,,0.01,Wunderground v.1.15,2013-04-22 10:42:00,
2013-04-22 06:47:00,68.4,66.9,30.02,NNE,15,0.0,1.0,95,0.00,,,0.01,Wunderground v.1.15,2013-04-22 10:47:00,
2013-04-22 06:53:00,68.4,66.9,30.02,North,355,1.0,3.0,95,0.00,,,0.01,Wunderground v.1.15,2013-04-22 10:53:00,
2013-04-22 06:59:00,68.4,66.9,30.02,North,355,1.0,5.0,95,0.00,,,0.01,Wunderground v.1.15,2013-04-22 10:59:00,
2013-04-22 07:04:00,68.4,66.9,30.02,North,355,1.0,2.0,95,0.00,,,0.01,Wunderground v.1.15,2013-04-22 11:04:00,
2013-04-22 07:10:00,68.3,66.8,30.02,North,350,1.0,2.0,95,0.00,,,0.01,Wunderground v.1.15,2013-04-22 11:10:00,
2013-04-22 07:15:00,68.3,66.8,30.03,North,350,1.0,2.0,95,0.00,,,0.01,Wunderground v.1.15,2013-04-22 11:15:00,
2013-04-22 07:20:00,68.3,67.1,30.03,North,350,1.0,3.0,96,0.00,,,0.01,Wunderground v.1.15,2013-04-22 11:20:00,
2013-04-22 07:25:00,68.4,67.2,30.03,North,9,1.0,3.0,96,0.00,,,0.01,Wunderground v.1.15,2013-04-22 11:25:00,
2013-04-22 07:31:00,68.4,67.2,30.04,North,360,1.0,2.0,96,0.00,,,0.01,Wunderground v.1.15,2013-04-22 11:31:00,
2013-04-22 07:36:00,68.3,67.1,30.04,North,360,1.0,4.0,96,0.00,,,0.01,Wunderground v.1.15,2013-04-22 11:36:00,
2013-04-22 07:41:00,68.3,67.1,30.04,North,355,1.0,1.0,96,0.00,,,0.01,Wunderground v.1.15,2013-04-22 11:41:00,
2013-04-22 07:47:00,68.3,67.1,30.04,NE,55,1.0,2.0,96,0.00,,,0.01,Wunderground v.1.15,2013-04-22 11:47:00,
2013-04-22 07:52:00,68.4,67.2,30.05,NE,52,1.0,1.0,96,0.00,,,0.01,Wunderground v.1.15,2013-04-22 11:52:00,
2013-04-22 07:57:00,68.4,67.2,30.05,NNE,22,0.0,1.0,96,0.00,,,0.01,Wunderground v.1.15,2013-04-22 11:57:00,
2013-04-22 08:03:00,68.4,67.2,30.05,North,360,1.0,5.0,96,0.00,,,0.01,Wunderground v.1.15,2013-04-22 12:03:00,
2013-04-22 08:08:00,68.3,66.8,30.05,North,351,1.0,5.0,95,0.00,,,0.01,Wunderground v.1.15,2013-04-22 12:08:00,
2013-04-22 08:13:00,68.2,66.7,30.05,NNW,343,2.0,3.0,95,0.00,,,0.01,Wunderground v.1.15,2013-04-22 12:13:00,
2013-04-22 08:19:00,68.3,66.8,30.06,NNW,345,1.0,5.0,95,0.00,,,0.01,Wunderground v.1.15,2013-04-22 12:19:00,
2013-04-22 08:24:00,68.3,66.8,30.06,NE,40,1.0,2.0,95,0.00,,,0.01,Wunderground v.1.15,2013-04-22 12:24:00,
2013-04-22 08:29:00,68.2,66.7,30.06,North,355,1.0,4.0,95,0.00,,,0.01,Wunderground v.1.15,2013-04-22 12:29:00,
2013-04-22 08:35:00,68.3,66.8,30.06,North,355,0.0,1.0,95,0.00,,,0.01,Wunderground v.1.15,2013-04-22 12:35:00,
2013-04-22 08:40:00,68.4,66.9,30.06,ENE,59,0.0,0.0,95,0.00,,,0.01,Wunderground v.1.15,2013-04-22 12:40:00,
2013-04-22 08:45:00,68.3,66.8,30.06,NNE,26,0.0,0.0,95,0.00,,,0.01,Wunderground v.1.15,2013-04-22 12:45:00,
2013-04-22 08:51:00,68.4,66.9,30.06,NNE,27,1.0,3.0,95,0.00,,,0.01,Wunderground v.1.15,2013-04-22 12:51:00,
2013-04-22 08:56:00,68.5,67.0,30.06,NNE,26,0.0,3.0,95,0.00,,,0.01,Wunderground v.1.15,2013-04-22 12:56:00,
2013-04-22 09:01:00,68.6,67.1,30.06,North,350,0.0,1.0,95,0.00,,,0.01,Wunderground v.1.15,2013-04-22 13:01:00,
2013-04-22 09:06:00,68.7,67.2,30.07,North,355,1.0,5.0,95,0.00,,,0.01,Wunderground v.1.15,2013-04-22 13:06:00,
2013-04-22 09:12:00,68.8,67.3,30.07,North,355,0.0,2.0,95,0.00,,,0.01,Wunderground v.1.15,2013-04-22 13:12:00,
2013-04-22 09:17:00,68.9,67.4,30.08,ENE,65,0.0,2.0,95,0.00,,,0.01,Wunderground v.1.15,2013-04-22 13:17:00,
2013-04-22 09:23:00,69.0,67.2,30.08,ENE,57,0.0,0.0,94,0.00,,,0.01,Wunderground v.1.15,2013-04-22 13:23:00,
2013-04-22 09:28:00,69.0,67.2,30.08,ENE,57,0.0,1.0,94,0.00,,,0.01,Wunderground v.1.15,2013-04-22 13:28:00,
2013-04-22 09:33:00,69.2,67.1,30.08,ENE,76,0.0,1.0,93,0.00,,,0.01,Wunderground v.1.15,2013-04-22 13:33:00,
2013-04-22 09:38:00,69.5,67.4,30.08,ENE,69,1.0,1.0,93,0.00,,,0.01,Wunderground v.1.15,2013-04-22 13:38:00,
2013-04-22 09:44:00,69.8,67.4,30.08,NNE,23,0.0,1.0,92,0.00,,,0.01,Wunderground v.1.15,2013-04-22 13:44:00,
2013-04-22 09:49:00,69.9,67.5,30.08,NNE,32,0.0,1.0,92,0.00,,,0.01,Wunderground v.1.15,2013-04-22 13:49:00,
2013-04-22 09:54:00,70.1,67.7,30.08,NNE,33,0.0,0.0,92,0.00,,,0.01,Wunderground v.1.15,2013-04-22 13:54:00,
2013-04-22 10:00:00,70.4,67.6,30.08,NNE,28,0.0,0.0,91,0.00,,,0.01,Wunderground v.1.15,2013-04-22 14:00:00,
2013-04-22 10:05:00,70.5,67.7,30.08,NNE,24,1.0,3.0,91,0.00,,,0.01,Wunderground v.1.15,2013-04-22 14:05:00,
2013-04-22 10:11:00,70.6,67.5,30.08,NE,42,1.0,1.0,90,0.00,,,0.01,Wunderground v.1.15,2013-04-22 14:11:00,
2013-04-22 10:16:00,70.7,67.6,30.08,NNE,23,1.0,2.0,90,0.00,,,0.01,Wunderground v.1.15,2013-04-22 14:16:00,
2013-04-22 10:21:00,70.8,67.7,30.09,NNE,18,1.0,1.0,90,0.00,,,0.01,Wunderground v.1.15,2013-04-22 14:21:00,
2013-04-22 10:26:00,71.0,67.9,30.09,North,360,1.0,4.0,90,0.00,,,0.01,Wunderground v.1.15,2013-04-22 14:26:00,
2013-04-22 10:32:00,71.2,67.8,30.08,North,10,1.0,1.0,89,0.00,,,0.01,Wunderground v.1.15,2013-04-22 14:32:00,
2013-04-22 10:37:00,71.5,68.1,30.09,NE,46,1.0,1.0,89,0.00,,,0.01,Wunderground v.1.15,2013-04-22 14:37:00,
2013-04-22 10:42:00,71.8,68.1,30.09,NE,50,0.0,0.0,88,0.00,,,0.01,Wunderground v.1.15,2013-04-22 14:42:00,
2013-04-22 10:48:00,72.2,68.1,30.09,NE,53,0.0,0.0,87,0.00,,,0.01,Wunderground v.1.15,2013-04-22 14:48:00,
2013-04-22 10:53:00,72.7,68.6,30.09,NE,48,0.0,1.0,87,0.00,,,0.01,Wunderground v.1.15,2013-04-22 14:53:00,
2013-04-22 10:58:00,73.1,68.3,30.09,ENE,63,0.0,1.0,85,0.00,,,0.01,Wunderground v.1.15,2013-04-22 14:58:00,
2013-04-22 11:04:00,73.6,68.8,30.09,North,355,0.0,4.0,85,0.00,,,0.01,Wunderground v.1.15,2013-04-22 15:04:00,
2013-04-22 11:09:00,73.8,68.7,30.09,SE,128,0.0,4.0,84,0.00,,,0.01,Wunderground v.1.15,2013-04-22 15:09:00,
2013-04-22 11:14:00,73.8,68.7,30.09,ENE,73,0.0,0.0,84,0.00,,,0.01,Wunderground v.1.15,2013-04-22 15:14:00,
2013-04-22 11:19:00,74.0,68.9,30.09,ENE,57,0.0,0.0,84,0.00,,,0.01,Wunderground v.1.15,2013-04-22 15:19:00,
2013-04-22 11:25:00,74.3,68.8,30.09,NE,44,0.0,0.0,83,0.00,,,0.01,Wunderground v.1.15,2013-04-22 15:25:00,
2013-04-22 11:30:00,74.5,68.6,30.10,ENE,73,0.0,3.0,82,0.00,,,0.01,Wunderground v.1.15,2013-04-22 15:30:00,
2013-04-22 11:36:00,74.8,68.9,30.10,NE,44,0.0,3.0,82,0.00,,,0.01,Wunderground v.1.15,2013-04-22 15:36:00,
2013-04-22 11:42:00,75.1,68.9,30.10,ENE,65,0.0,2.0,81,0.00,,,0.01,Wunderground v.1.15,2013-04-22 15:42:00,
2013-04-22 11:47:00,75.2,69.0,30.10,East,86,1.0,2.0,81,0.00,,,0.01,Wunderground v.1.15,2013-04-22 15:47:00,
2013-04-22 11:53:00,75.4,69.2,30.10,NNE,26,1.0,1.0,81,0.00,,,0.01,Wunderground v.1.15,2013-04-22 15:53:00,
2013-04-22 11:58:00,75.9,69.3,30.10,ESE,123,1.0,2.0,80,0.00,,,0.01,Wunderground v.1.15,2013-04-22 15:58:00,
2013-04-22 12:03:00,76.3,69.3,30.09,SE,124,1.0,3.0,79,0.00,,,0.01,Wunderground v.1.15,2013-04-22 16:03:00,
2013-04-22 12:09:00,76.8,69.4,30.09,NNE,30,2.0,3.0,78,0.00,,,0.01,Wunderground v.1.15,2013-04-22 16:09:00,
2013-04-22 12:14:00,77.2,69.4,30.09,NNW,348,2.0,4.0,77,0.00,,,0.01,Wunderground v.1.15,2013-04-22 16:14:00,
2013-04-22 12:19:00,77.6,69.8,30.09,ENE,71,2.0,4.0,77,0.00,,,0.01,Wunderground v.1.15,2013-04-22 16:19:00,
2013-04-22 12:25:00,78.1,69.9,30.09,NE,52,2.0,2.0,76,0.00,,,0.01,Wunderground v.1.15,2013-04-22 16:25:00,
2013-04-22 12:30:00,78.4,69.8,30.08,ENE,57,1.0,1.0,75,0.00,,,0.01,Wunderground v.1.15,2013-04-22 16:30:00,
2013-04-22 12:35:00,78.9,69.5,30.08,ENE,65,0.0,2.0,73,0.00,,,0.01,Wunderground v.1.15,2013-04-22 16:35:00,
2013-04-22 12:40:00,79.3,69.9,30.08,NE,41,0.0,0.0,73,0.00,,,0.01,Wunderground v.1.15,2013-04-22 16:40:00,
2013-04-22 12:46:00,79.5,70.1,30.08,SE,144,1.0,3.0,73,0.00,,,0.01,Wunderground v.1.15,2013-04-22 16:46:00,
2013-04-22 12:51:00,79.9,69.7,30.08,NE,51,1.0,1.0,71,0.00,,,0.01,Wunderground v.1.15,2013-04-22 16:51:00,
2013-04-22 12:56:00,80.0,69.3,30.08,NNW,345,1.0,4.0,70,0.00,,,0.01,Wunderground v.1.15,2013-04-22 16:56:00,
2013-04-22 13:02:00,80.5,69.8,30.07,ENE,75,2.0,7.0,70,0.00,,,0.01,Wunderground v.1.15,2013-04-22 17:02:00,
2013-04-22 13:07:00,80.8,69.7,30.07,NE,34,1.0,7.0,69,0.00,,,0.01,Wunderground v.1.15,2013-04-22 17:07:00,
2013-04-22 13:12:00,81.0,69.9,30.07,East,81,1.0,3.0,69,0.00,,,0.02,Wunderground v.1.15,2013-04-22 17:12:00,
2013-04-22 13:18:00,81.7,69.2,30.06,NNW,335,2.0,6.0,66,0.00,,,0.02,Wunderground v.1.15,2013-04-22 17:18:00,
2013-04-22 13:23:00,81.5,69.9,30.06,North,5,3.0,4.0,68,0.00,,,0.02,Wunderground v.1.15,2013-04-22 17:23:00,
2013-04-22 13:28:00,81.3,69.7,30.06,SE,124,2.0,5.0,68,0.00,,,0.02,Wunderground v.1.15,2013-04-22 17:28:00,
2013-04-22 13:34:00,81.5,69.5,30.06,NE,52,2.0,9.0,67,0.00,,,0.02,Wunderground v.1.15,2013-04-22 17:34:00,
2013-04-22 13:39:00,80.9,68.9,30.06,North,355,2.0,9.0,67,0.00,,,0.02,Wunderground v.1.15,2013-04-22 17:39:00,
2013-04-22 13:44:00,80.5,69.0,30.06,North,9,1.0,4.0,68,0.00,,,0.02,Wunderground v.1.15,2013-04-22 17:44:00,
2013-04-22 13:50:00,80.0,69.3,30.05,NNW,342,2.0,4.0,70,0.00,,,0.02,Wunderground v.1.15,2013-04-22 17:50:00,
2013-04-22 13:55:00,79.9,69.2,30.05,ENE,71,2.0,4.0,70,0.00,,,0.02,Wunderground v.1.15,2013-04-22 17:55:00,
2013-04-22 14:00:00,79.9,69.2,30.05,WNW,290,1.0,2.0,70,0.00,,,0.02,Wunderground v.1.15,2013-04-22 18:00:00,
2013-04-22 14:05:00,79.8,69.1,30.05,North,360,1.0,5.0,70,0.00,,,0.02,Wunderground v.1.15,2013-04-22 18:05:00,
2013-04-22 14:11:00,79.8,69.1,30.05,North,5,1.0,1.0,70,0.00,,,0.02,Wunderground v.1.15,2013-04-22 18:11:00,
2013-04-22 14:16:00,79.9,69.2,30.04,North,355,1.0,3.0,70,0.00,,,0.02,Wunderground v.1.15,2013-04-22 18:16:00,
2013-04-22 14:22:00,79.6,69.4,30.04,North,355,1.0,4.0,71,0.00,,,0.02,Wunderground v.1.15,2013-04-22 18:22:00,
2013-04-22 14:27:00,79.3,69.5,30.04,NNW,338,2.0,5.0,72,0.00,,,0.02,Wunderground v.1.15,2013-04-22 18:27:00,
2013-04-22 14:32:00,79.4,69.2,30.04,NNE,29,2.0,2.0,71,0.00,,,0.02,Wunderground v.1.15,2013-04-22 18:32:00,
2013-04-22 14:38:00,79.4,68.8,30.04,NE,34,1.0,7.0,70,0.00,,,0.02,Wunderground v.1.15,2013-04-22 18:38:00,
2013-04-22 14:43:00,79.9,69.2,30.04,North,355,1.0,2.0,70,0.00,,,0.02,Wunderground v.1.15,2013-04-22 18:43:00,
2013-04-22 14:48:00,80.3,69.6,30.04,North,5,1.0,4.0,70,0.00,,,0.02,Wunderground v.1.15,2013-04-22 18:48:00,
2013-04-22 14:53:00,80.2,69.1,30.04,NNE,33,1.0,3.0,69,0.00,,,0.02,Wunderground v.1.15,2013-04-22 18:53:00,
2013-04-22 14:59:00,80.2,69.1,30.03,NE,49,1.0,6.0,69,0.00,,,0.02,Wunderground v.1.15,2013-04-22 18:59:00,
2013-04-22 15:04:00,80.3,69.2,30.03,NE,38,1.0,6.0,69,0.00,,,0.02,Wunderground v.1.15,2013-04-22 19:04:00,
2013-04-22 15:09:00,80.6,69.1,30.03,East,80,1.0,6.0,68,0.00,,,0.02,Wunderground v.1.15,2013-04-22 19:09:00,
2013-04-22 15:15:00,81.5,69.5,30.03,NNW,344,1.0,3.0,67,0.00,,,0.02,Wunderground v.1.15,2013-04-22 19:15:00,
2013-04-22 15:20:00,81.7,69.2,30.02,East,96,0.0,0.0,66,0.00,,,0.02,Wunderground v.1.15,2013-04-22 19:20:00,
2013-04-22 15:26:00,81.8,69.3,30.02,NNE,32,0.0,4.0,66,0.00,,,0.02,Wunderground v.1.15,2013-04-22 19:26:00,
2013-04-22 15:31:00,81.8,69.3,30.02,ENE,73,1.0,1.0,66,0.00,,,0.02,Wunderground v.1.15,2013-04-22 19:31:00,
2013-04-22 15:36:00,81.8,68.9,30.01,ESE,104,0.0,1.0,65,0.00,,,0.02,Wunderground v.1.15,2013-04-22 19:36:00,
2013-04-22 15:42:00,82.0,68.6,30.01,East,86,0.0,2.0,64,0.00,,,0.02,Wunderground v.1.15,2013-04-22 19:42:00,
2013-04-22 15:47:00,81.9,68.5,30.01,NNE,17,0.0,2.0,64,0.00,,,0.02,Wunderground v.1.15,2013-04-22 19:47:00,
2013-04-22 15:52:00,82.4,69.0,30.01,NW,319,0.0,0.0,64,0.00,,,0.02,Wunderground v.1.15,2013-04-22 19:52:00,
2013-04-22 15:57:00,82.5,69.1,30.01,NNE,25,1.0,3.0,64,0.00,,,0.02,Wunderground v.1.15,2013-04-22 19:57:00,
2013-04-22 16:03:00,82.4,69.0,30.00,ENE,67,1.0,7.0,64,0.00,,,0.02,Wunderground v.1.15,2013-04-22 20:03:00,
2013-04-22 16:08:00,82.2,68.3,30.00,North,355,1.0,7.0,63,0.00,,,0.02,Wunderground v.1.15,2013-04-22 20:08:00,
2013-04-22 16:14:00,82.5,68.6,30.00,North,355,1.0,7.0,63,0.00,,,0.02,Wunderground v.1.15,2013-04-22 20:14:00,
2013-04-22 16:19:00,82.9,68.5,30.00,East,84,1.0,7.0,62,0.00,,,0.02,Wunderground v.1.15,2013-04-22 20:19:00,
2013-04-22 16:24:00,82.5,68.6,30.00,NW,315,1.0,2.0,63,0.00,,,0.02,Wunderground v.1.15,2013-04-22 20:24:00,
2013-04-22 16:29:00,82.0,68.2,30.00,NNE,25,0.0,2.0,63,0.00,,,0.02,Wunderground v.1.15,2013-04-22 20:29:00,
2013-04-22 16:35:00,81.8,68.0,30.00,North,355,0.0,0.0,63,0.00,,,0.02,Wunderground v.1.15,2013-04-22 20:35:00,
2013-04-22 16:40:00,82.0,68.2,29.99,NNW,341,1.0,1.0,63,0.00,,,0.02,Wunderground v.1.15,2013-04-22 20:40:00,
2013-04-22 16:45:00,82.2,68.3,29.99,NE,52,0.0,1.0,63,0.00,,,0.02,Wunderground v.1.15,2013-04-22 20:45:00,
2013-04-22 16:51:00,82.3,68.0,29.99,North,5,1.0,1.0,62,0.00,,,0.02,Wunderground v.1.15,2013-04-22 20:51:00,
2013-04-22 16:56:00,82.5,68.2,29.99,NW,304,1.0,5.0,62,0.00,,,0.02,Wunderground v.1.15,2013-04-22 20:56:00,
2013-04-22 17:01:00,82.3,67.5,29.99,NNE,21,1.0,10.0,61,0.00,,,0.02,Wunderground v.1.15,2013-04-22 21:01:00,
2013-04-22 17:07:00,82.0,67.7,29.99,ENE,78,1.0,10.0,62,0.00,,,0.02,Wunderground v.1.15,2013-04-22 21:07:00,
2013-04-22 17:12:00,81.6,67.8,29.99,North,360,1.0,8.0,63,0.00,,,0.02,Wunderground v.1.15,2013-04-22 21:12:00,
2013-04-22 17:17:00,81.4,67.6,29.99,WNW,298,1.0,8.0,63,0.00,,,0.02,Wunderground v.1.15,2013-04-22 21:17:00,
2013-04-22 17:23:00,81.4,67.6,29.99,NNW,338,1.0,1.0,63,0.00,,,0.02,Wunderground v.1.15,2013-04-22 21:23:00,
2013-04-22 17:28:00,81.7,68.3,29.99,West,261,0.0,1.0,64,0.00,,,0.02,Wunderground v.1.15,2013-04-22 21:28:00,
2013-04-22 17:33:00,81.5,67.7,29.99,North,351,1.0,7.0,63,0.00,,,0.02,Wunderground v.1.15,2013-04-22 21:33:00,
2013-04-22 17:39:00,81.0,67.7,29.99,NNE,17,1.0,7.0,64,0.00,,,0.02,Wunderground v.1.15,2013-04-22 21:39:00,
2013-04-22 17:44:00,80.8,67.5,29.99,North,10,0.0,1.0,64,0.00,,,0.02,Wunderground v.1.15,2013-04-22 21:44:00,
2013-04-22 17:49:00,80.7,66.9,29.99,NNW,333,1.0,3.0,63,0.00,,,0.02,Wunderground v.1.15,2013-04-22 21:49:00,
2013-04-22 17:54:00,80.5,67.2,30.00,NNW,342,1.0,2.0,64,0.00,,,0.02,Wunderground v.1.15,2013-04-22 21:54:00,
2013-04-22 18:00:00,80.3,67.0,29.99,NW,324,1.0,1.0,64,0.00,,,0.02,Wunderground v.1.15,2013-04-22 22:00:00,
2013-04-22 18:05:00,80.2,66.9,29.99,North,351,1.0,11.0,64,0.00,,,0.02,Wunderground v.1.15,2013-04-22 22:05:00,
2013-04-22 18:11:00,80.4,67.6,30.00,NNW,331,2.0,5.0,65,0.00,,,0.02,Wunderground v.1.15,2013-04-22 22:11:00,
2013-04-22 18:16:00,80.0,67.6,30.00,NNW,331,2.0,5.0,66,0.00,,,0.02,Wunderground v.1.15,2013-04-22 22:16:00,
2013-04-22 18:21:00,79.6,68.1,30.00,NE,45,1.0,2.0,68,0.00,,,0.02,Wunderground v.1.15,2013-04-22 22:21:00,
2013-04-22 18:26:00,79.6,68.1,30.00,NNW,336,1.0,2.0,68,0.00,,,0.02,Wunderground v.1.15,2013-04-22 22:26:00,
2013-04-22 18:32:00,79.8,67.9,30.00,NNW,336,1.0,4.0,67,0.00,,,0.02,Wunderground v.1.15,2013-04-22 22:32:00,
2013-04-22 18:37:00,79.6,68.1,30.00,NNW,329,1.0,9.0,68,0.00,,,0.02,Wunderground v.1.15,2013-04-22 22:37:00,
2013-04-22 18:42:00,79.3,67.8,30.00,ENE,59,2.0,2.0,68,0.00,,,0.02,Wunderground v.1.15,2013-04-22 22:42:00,
2013-04-22 18:48:00,79.2,68.1,30.00,NNE,15,1.0,2.0,69,0.00,,,0.02,Wunderground v.1.15,2013-04-22 22:48:00,
2013-04-22 18:53:00,79.4,68.3,30.00,NE,52,1.0,1.0,69,0.00,,,0.02,Wunderground v.1.15,2013-04-22 22:53:00,
2013-04-22 18:58:00,79.0,67.1,30.01,East,92,0.0,4.0,67,0.00,,,0.02,Wunderground v.1.15,2013-04-22 22:58:00,
2013-04-22 19:03:00,78.4,67.0,30.01,ENE,71,0.0,7.0,68,0.00,,,0.02,Wunderground v.1.15,2013-04-22 23:03:00,
2013-04-22 19:09:00,77.6,67.0,30.01,NNE,28,1.0,7.0,70,0.00,,,0.02,Wunderground v.1.15,2013-04-22 23:09:00,
2013-04-22 19:14:00,77.0,67.3,30.01,East,90,1.0,1.0,72,0.00,,,0.02,Wunderground v.1.15,2013-04-22 23:14:00,
2013-04-22 19:20:00,76.1,67.2,30.02,East,83,1.0,1.0,74,0.00,,,0.02,Wunderground v.1.15,2013-04-22 23:20:00,
2013-04-22 19:25:00,75.5,67.0,30.02,NE,42,1.0,5.0,75,0.00,,,0.02,Wunderground v.1.15,2013-04-22 23:25:00,
2013-04-22 19:30:00,74.9,66.8,30.01,ENE,69,1.0,1.0,76,0.00,,,0.02,Wunderground v.1.15,2013-04-22 23:30:00,
2013-04-22 19:35:00,74.7,67.0,30.01,ENE,67,1.0,1.0,77,0.00,,,0.02,Wunderground v.1.15,2013-04-22 23:35:00,
2013-04-22 19:41:00,74.3,66.6,30.02,ENE,72,1.0,4.0,77,0.00,,,0.02,Wunderground v.1.15,2013-04-22 23:41:00,
2013-04-22 19:46:00,74.1,66.4,30.02,NE,49,1.0,4.0,77,0.00,,,0.02,Wunderground v.1.15,2013-04-22 23:46:00,
2013-04-22 19:51:00,73.8,66.1,30.02,East,80,0.0,1.0,77,0.00,,,0.02,Wunderground v.1.15,2013-04-22 23:51:00,
2013-04-22 19:57:00,73.5,66.2,30.03,NNE,29,1.0,3.0,78,0.00,,,0.02,Wunderground v.1.15,2013-04-22 23:57:00,
2013-04-22 20:02:00,73.3,66.0,30.03,ENE,69,1.0,7.0,78,0.00,,,0.02,Wunderground v.1.15,2013-04-23 00:02:00,
2013-04-22 20:07:00,73.2,65.9,30.03,East,80,0.0,7.0,78,0.00,,,0.02,Wunderground v.1.15,2013-04-23 00:07:00,
2013-04-22 20:13:00,73.0,66.5,30.04,ESE,112,1.0,1.0,80,0.00,,,0.02,Wunderground v.1.15,2013-04-23 00:13:00,
2013-04-22 20:18:00,72.9,66.4,30.04,NNE,15,0.0,1.0,80,0.00,,,0.02,Wunderground v.1.15,2013-04-23 00:18:00,
2013-04-22 20:23:00,72.9,66.4,30.04,North,355,0.0,3.0,80,0.00,,,0.02,Wunderground v.1.15,2013-04-23 00:23:00,
2013-04-22 20:29:00,72.8,66.6,30.04,NE,46,0.0,3.0,81,0.00,,,0.02,Wunderground v.1.15,2013-04-23 00:29:00,
2013-04-22 20:35:00,72.7,66.2,30.05,NNE,33,0.0,1.0,80,0.00,,,0.02,Wunderground v.1.15,2013-04-23 00:35:00,
2013-04-22 20:40:00,72.6,66.4,30.05,WNW,295,1.0,4.0,81,0.00,,,0.02,Wunderground v.1.15,2013-04-23 00:40:00,
2013-04-22 20:46:00,72.3,65.8,30.05,North,349,1.0,4.0,80,0.00,,,0.02,Wunderground v.1.15,2013-04-23 00:46:00,
2013-04-22 20:51:00,72.0,65.5,30.05,North,355,1.0,4.0,80,0.00,,,0.02,Wunderground v.1.15,2013-04-23 00:51:00,
2013-04-22 20:56:00,71.6,65.1,30.06,ENE,61,1.0,4.0,80,0.00,,,0.02,Wunderground v.1.15,2013-04-23 00:56:00,
2013-04-22 21:02:00,71.4,64.9,30.06,NE,38,1.0,11.0,80,0.00,,,0.02,Wunderground v.1.15,2013-04-23 01:02:00,
2013-04-22 21:08:00,71.2,64.7,30.06,North,360,2.0,11.0,80,0.00,,,0.02,Wunderground v.1.15,2013-04-23 01:08:00,
2013-04-22 21:13:00,71.1,65.0,30.06,NNE,19,1.0,2.0,81,0.00,,,0.02,Wunderground v.1.15,2013-04-23 01:13:00,
2013-04-22 21:19:00,71.0,64.9,30.07,NE,49,1.0,7.0,81,0.00,,,0.02,Wunderground v.1.15,2013-04-23 01:19:00,
2013-04-22 21:24:00,70.9,64.8,30.07,NE,45,1.0,1.0,81,0.00,,,0.02,Wunderground v.1.15,2013-04-23 01:24:00,
2013-04-22 21:30:00,70.8,64.7,30.07,NE,46,1.0,1.0,81,0.00,,,0.02,Wunderground v.1.15,2013-04-23 01:30:00,
2013-04-22 21:35:00,70.8,64.7,30.07,ENE,78,1.0,2.0,81,0.00,,,0.02,Wunderground v.1.15,2013-04-23 01:35:00,
2013-04-22 21:41:00,70.7,64.6,30.08,ENE,63,1.0,1.0,81,0.00,,,0.02,Wunderground v.1.15,2013-04-23 01:41:00,
2013-04-22 21:46:00,70.6,64.5,30.08,East,89,1.0,3.0,81,0.00,,,0.02,Wunderground v.1.15,2013-04-23 01:46:00,
2013-04-22 21:52:00,70.6,64.8,30.08,East,83,1.0,1.0,82,0.00,,,0.02,Wunderground v.1.15,2013-04-23 01:52:00,
2013-04-22 21:57:00,70.5,64.4,30.08,North,9,1.0,5.0,81,0.00,,,0.02,Wunderground v.1.15,2013-04-23 01:57:00,
2013-04-22 22:02:00,70.4,64.3,30.08,East,80,2.0,7.0,81,0.00,,,0.02,Wunderground v.1.15,2013-04-23 02:02:00,
2013-04-22 22:08:00,70.3,64.2,30.08,NE,34,1.0,7.0,81,0.00,,,0.02,Wunderground v.1.15,2013-04-23 02:08:00,
2013-04-22 22:14:00,70.2,64.4,30.09,East,86,1.0,2.0,82,0.00,,,0.02,Wunderground v.1.15,2013-04-23 02:14:00,
2013-04-22 22:19:00,70.2,64.4,30.09,ENE,78,0.0,2.0,82,0.00,,,0.02,Wunderground v.1.15,2013-04-23 02:19:00,
2013-04-22 22:24:00,70.1,64.3,30.09,NNE,19,0.0,4.0,82,0.00,,,0.02,Wunderground v.1.15,2013-04-23 02:24:00,
2013-04-22 22:30:00,69.9,64.2,30.09,East,86,1.0,1.0,82,0.00,,,0.02,Wunderground v.1.15,2013-04-23 02:30:00,
2013-04-22 22:35:00,69.8,64.1,30.09,NNE,17,1.0,1.0,82,0.00,,,0.02,Wunderground v.1.15,2013-04-23 02:35:00,
2013-04-22 22:41:00,69.6,63.9,30.09,ENE,65,1.0,1.0,82,0.00,,,0.02,Wunderground v.1.15,2013-04-23 02:41:00,
2013-04-22 22:46:00,69.5,63.8,30.09,ESE,103,1.0,6.0,82,0.00,,,0.02,Wunderground v.1.15,2013-04-23 02:46:00,
2013-04-22 22:51:00,69.4,63.7,30.09,ESE,115,1.0,1.0,82,0.00,,,0.02,Wunderground v.1.15,2013-04-23 02:51:00,
2013-04-22 22:57:00,69.3,63.9,30.09,East,82,0.0,3.0,83,0.00,,,0.02,Wunderground v.1.15,2013-04-23 02:57:00,
2013-04-22 23:02:00,69.2,63.8,30.09,NE,48,1.0,9.0,83,0.00,,,0.02,Wunderground v.1.15,2013-04-23 03:02:00,
2013-04-22 23:08:00,69.0,63.6,30.09,East,79,1.0,9.0,83,0.00,,,0.02,Wunderground v.1.15,2013-04-23 03:08:00,
2013-04-22 23:13:00,68.9,63.5,30.09,East,99,0.0,2.0,83,0.00,,,0.02,Wunderground v.1.15,2013-04-23 03:13:00,
2013-04-22 23:19:00,68.7,63.7,30.09,ENE,76,0.0,2.0,84,0.00,,,0.02,Wunderground v.1.15,2013-04-23 03:19:00,
2013-04-22 23:24:00,68.6,63.6,30.09,NNW,340,0.0,0.0,84,0.00,,,0.02,Wunderground v.1.15,2013-04-23 03:24:00,
2013-04-22 23:30:00,68.6,63.6,30.09,SSE,150,0.0,0.0,84,0.00,,,0.02,Wunderground v.1.15,2013-04-23 03:30:00,
2013-04-22 23:35:00,68.6,63.6,30.09,NNE,26,0.0,0.0,84,0.00,,,0.02,Wunderground v.1.15,2013-04-23 03:35:00,
2013-04-22 23:41:00,68.6,63.6,30.09,NE,41,0.0,2.0,84,0.00,,,0.02,Wunderground v.1.15,2013-04-23 03:41:00,
2013-04-22 23:46:00,68.5,63.5,30.09,ENE,76,0.0,3.0,84,0.00,,,0.02,Wunderground v.1.15,2013-04-23 03:46:00,
2013-04-22 23:52:00,68.4,63.4,30.09,East,92,0.0,0.0,84,0.00,,,0.02,Wunderground v.1.15,2013-04-23 03:52:00,
2013-04-22 23:57:00,68.4,63.4,30.09,East,89,0.0,0.0,84,0.00,,,0.02,Wunderground v.1.15,2013-04-23 03:57:00,